Live-Position
3D-Globus wird geladen...
Über OneWeb SL0061
Group: 3 satellites
Beschreibung wird geladen...
Nächste Überflüge
Passes for default location (London). Set your location on the main map for personalized predictions.
Höhenverlauf
Loading altitude history...
No altitude history available
Zweizeiliger Elementsatz
1 45428U 20020E 26125.44240355 -.00000352 00000-0 -10301-2 0 9999
2 45428 87.8930 29.5539 0001826 77.6601 282.4732 13.11417017297021
Epoch: 5. Mai 2026 •
Age: 13 hours
Aktueller Status
Höhe 1223.8 km
Geschwindigkeit 7.25 km/s
Subsatellitenpunkt 47.11°N,
172.74°E
Startdatum 21. März 2020
Alter 6.1 years
Typ internet
Startgruppe
Unknown Vehicle •
OneWeb Launch 3 •
34 satellites
OneWeb SL0066
45424
OneWeb SL0067 45425
OneWeb SL0080 45426
OneWeb SL0090 45427
OneWeb SL0081 45429
OneWeb SL0069 45430
OneWeb SL0031 45431
OneWeb SL0027 45432
OneWeb SL0064 45433
OneWeb SL0018 45434
OneWeb SL0083 45435
OneWeb SL0095 45436
OneWeb SL0092 45437
OneWeb SL0085 45438
OneWeb SL0096 45439
OneWeb SL0037 45440
OneWeb SL0042 45441
OneWeb SL0098 45442
OneWeb SL0055 45443
OneWeb SL0093 45444
...and 13 more
Technische Details
Klassifizierung Payload
Masse 148.00 kg
Trockenmasse 140.00 kg
Gesamtmasse 148.00 kg
Länge 1.30 m
Durchmesser 1.00 m
Spannweite 5.00 m
Form Trapezoid+2 pan
Hersteller ONEWUS
Bus-Typ ARROW
Phasenstatus In Orbit
Besitzer/Staat ONEWEB/UK
Most Searched
Loading...